sat.trackr.live / text

‹ back to catalog

CORIOLIS

NORAD 27640 · 2003-001A

PAYLOAD ACTIVE UNKNOWN

§ Identity

Operator
Country
US
Launch date
2003-01-06
Launch site
AFWTR
Launch vehicle
Mass (kg)
RCS (m²)
5.08

Purposes: science

External: N2YO · Heavens-Above · Gunter

§ Orbital elements

Epoch: 2026-05-25T00:20:21.512832Z

Period
101.41 min
Inclination
98.7129°
Eccentricity
0.0012802
Mean motion
14.19937671 rev/d
Perigee alt
816.3 km
Apogee alt
834.8 km
Semi-major
7,203.7 km
B*
6.0710e-5
RAAN
152.2527°
Arg perigee
280.7551°
Mean anomaly
79.2184°
Rev number
21,093

§ Raw data

CORIOLIS1 27640U 03001A   26145.01413788  .00000085  00000+0  60710-4 0  99932 27640  98.7129 152.2527 0012802 280.7551  79.2184 14.19937671210936

JSON: /api/v1/satellites/27640 · /tle

For live sub-satellite position, see the globe view (requires WebGL).

§ Visibility from observer

Set your observer location to see the next 7 days of passes ≥ 10°. The values pass through the URL so the page stays shareable.

No JS? Fill the form by hand. The geolocation button needs JavaScript.

§ Radio — SatNOGS DB

ModeDescriptionDownlinkUplink
FM Mode S 1 2.213 GHz
FM Mode S 2 2.223 GHz
QPSK Mode X 8.075 GHz
BPSK WindSat 2.222 GHz

4 transmitters · refreshed weekly from db.satnogs.org